Tracking 19817 objects as of 19-Aug-2019
HD Live streaming from Space Station
objects crossing your sky now

COSMOS 2251 DEB

Track COSMOS 2251 DEB now!
10-day predictions


NORAD ID: 35038
Int'l Code: 1993-036AHB
Perigee: 760.1 km
Apogee: 971.6 km
Inclination: 74.1 °
Period: 102.1 minutes
Semi major axis: 7236 km
RCS: 0.0088 m2 (small)
Launch date: June 16, 1993
Source: Commonwealth of Independent States (former USSR) (CIS)
Launch site: PLESETSK MISSILE AND SPACE COMPLEX (PKMTR)

Note: This is SATELLITE DEBRIS
aabbcc
Your satellite tracking list
Your tracking list is empty




NASA's NSSDC Master Catalog

Two Line Element Set (TLE):
1 35038U 93036AHB 19230.25222095 +.00000732 +00000-0 +38680-3 0  9992
2 35038 074.0830 161.4506 0146078 012.4806 139.9562 14.10188871529193
Source of the keplerian elements: AFSPC